Ansonville, NC

6:31 PM EDT on August 30, 2016 (GMT -0400)
Anson County

Weather History for KAFP - February, 2012

Change the Weather History Date:

Sunday, February 5, 2012

  Actual Average (KCLT) Record (KCLT)
Temperature  
Mean Temperature 48 °F 42 °F  
Max Temperature 53 °F 53 °F 78 °F (1890)
Min Temperature 44 °F 31 °F 6 °F (1886)
Degree Days  
Heating Degree Days 16 23  
Month to date heating degree days 116  
Since 1 July heating degree days 2223  
Cooling Degree Days 0 0  
Month to date cooling degree days 0  
Year to date cooling degree days 0  
Moisture  
Dew Point 48 °F    
Average Humidity 95    
Maximum Humidity 100    
Minimum Humidity 87    
Precipitation  
Precipitation 0.34 in 0.11 in 2.00 in (2010)
Month to date precipitation 0.56  
Year to date precipitation 3.97  
Snow  
Snow 0.00 in 0.10 in 3.50 in (1929)
Month to date snowfall 0.3  
Since 1 July snowfall 2.8  
Snow Depth -    
Sea Level Pressure  
Sea Level Pressure 30.04 in    
Wind  
Wind Speed 2 mph (NNE)    
Max Wind Speed 13 mph    
Max Gust Speed 17 mph    
Visibility 4 miles    
Events Rain    
T = Trace of Precipitation, MM = Missing Value Source: NWS Daily Summary

Daily Weather History Graph

Daily Weather History Graph

Search for Another Location

Airport or City:

Trip Planner

Search our weather history database for the weather conditions in past years. The results will help you decide how hot, cold, wet, or windy it might be!

Date:

Astronomy

Feb. 05, 2012 Rise Set
Actual Time 7:16 AM EST 5:52 PM EST
Civil Twilight 6:49 AM EST 6:19 PM EST
Nautical Twilight 6:19 AM EST 6:49 PM EST
Astronomical Twilight 5:50 AM EST 7:18 PM EST
Moon 3:52 PM EST (2/5) 5:22 AM EST (2/5)
Length of Visible Light 11h 29m
Length of Day
10h 36m
Waxing Gibbous, 94% of the Moon is Illuminated
Feb 5
Waxing Gibbous
Feb 7
Full
Feb 14
Last Quarter
Feb 21
New
Feb 29
First Quarter

Hourly Weather History & Observations

Time (EST) Temp. Windchill Dew Point Humidity Pressure Visibility Wind Dir Wind Speed Gust Speed Precip Events Conditions
12:15 AM 50.0 °F - 48.2 °F 94% 30.05 in 3.0 mi Calm Calm - N/A   Overcast
12:35 AM 50.0 °F - 48.2 °F 94% 30.04 in 4.0 mi Calm Calm - N/A   Scattered Clouds
12:55 AM 50.0 °F - 48.2 °F 94% 30.03 in 3.0 mi Calm Calm - N/A   Mostly Cloudy
1:15 AM 50.0 °F - 48.2 °F 94% 30.02 in 3.0 mi Calm Calm - N/A   Overcast
1:35 AM 50.0 °F - 48.2 °F 94% 30.02 in 3.0 mi Calm Calm - N/A   Overcast
1:55 AM 50.0 °F - 48.2 °F 94% 30.02 in 4.0 mi Calm Calm - N/A   Overcast
2:15 AM 50.0 °F - 50.0 °F 100% 30.01 in 4.0 mi Calm Calm - N/A   Overcast
2:35 AM 50.0 °F - 50.0 °F 100% 30.01 in 4.0 mi Calm Calm - N/A   Overcast
2:55 AM 50.0 °F - 50.0 °F 100% 30.00 in 3.0 mi Calm Calm - N/A Rain Rain
3:15 AM 50.0 °F - 50.0 °F 100% 30.01 in 3.0 mi Calm Calm - N/A Rain Light Rain
3:35 AM 50.0 °F - 50.0 °F 100% 30.00 in 2.5 mi Calm Calm - 0.03 in Rain Rain
3:55 AM 50.0 °F - 50.0 °F 100% 29.99 in 2.0 mi Calm Calm - 0.06 in Rain Light Rain
4:15 AM 50.0 °F - 50.0 °F 100% 29.98 in 2.0 mi Calm Calm - N/A   Light Drizzle
4:35 AM 50.0 °F - 50.0 °F 100% 29.98 in 2.5 mi Calm Calm - N/A   Light Drizzle
4:55 AM 50.0 °F - 50.0 °F 100% 29.97 in 2.0 mi Calm Calm - 0.03 in Rain Heavy Rain
5:15 AM 50.0 °F - 50.0 °F 100% 29.97 in 1.8 mi SSE 5.8 mph - 0.10 in Rain Heavy Rain
5:35 AM 51.8 °F - 50.0 °F 94% 29.97 in 1.5 mi Calm Calm - 0.19 in Rain Heavy Rain
5:55 AM 51.8 °F - 50.0 °F 94% 29.97 in 2.0 mi Calm Calm - 0.23 in Rain Rain
6:15 AM 51.8 °F - 50.0 °F 94% 29.97 in 2.0 mi Calm Calm - 0.01 in   Drizzle
6:35 AM 51.8 °F - 50.0 °F 94% 29.98 in 1.8 mi Calm Calm - 0.01 in   Drizzle
6:55 AM 51.8 °F - 50.0 °F 94% 29.99 in 2.0 mi Calm Calm - 0.02 in Rain Rain
7:15 AM 51.8 °F - 50.0 °F 94% 29.99 in 2.5 mi Calm Calm - N/A   Overcast
7:35 AM 51.8 °F - 50.0 °F 94% 29.99 in 1.0 mi Calm Calm - N/A   Overcast
7:55 AM 51.8 °F - 50.0 °F 94% 29.99 in 0.8 mi Calm Calm - N/A   Overcast
8:15 AM 51.8 °F - 50.0 °F 94% 30.01 in 1.5 mi Calm Calm - N/A   Overcast
8:35 AM 51.8 °F - 50.0 °F 94% 30.01 in 1.5 mi Calm Calm - N/A   Overcast
8:55 AM 51.8 °F - 51.8 °F 100% 30.02 in 1.5 mi Calm Calm - N/A   Overcast
9:15 AM 51.8 °F - 51.8 °F 100% 30.02 in 1.5 mi Calm Calm - N/A   Overcast
9:35 AM 51.8 °F - 51.8 °F 100% 30.01 in 1.2 mi Calm Calm - N/A   Overcast
9:55 AM 51.8 °F - 51.8 °F 100% 30.02 in 1.0 mi Calm Calm - N/A   Overcast
10:15 AM 53.6 °F - 51.8 °F 94% 30.02 in 1.0 mi Calm Calm - N/A   Overcast
10:35 AM 53.6 °F - 51.8 °F 94% 30.02 in 1.2 mi Calm Calm - N/A   Overcast
10:55 AM 53.6 °F - 53.6 °F 100% 30.03 in 1.2 mi Calm Calm - N/A   Overcast
11:15 AM 53.6 °F - 53.6 °F 100% 30.04 in 1.8 mi North 4.6 mph - N/A   Overcast
11:35 AM 53.6 °F - 51.8 °F 94% 30.04 in 2.0 mi NNE 4.6 mph - N/A   Overcast
11:55 AM 53.6 °F - 51.8 °F 94% 30.03 in 2.0 mi NE 6.9 mph - N/A   Overcast
12:15 PM 50.0 °F - 50.0 °F 100% 30.03 in 1.5 mi NNE 6.9 mph - N/A   Overcast
12:35 PM 50.0 °F - 50.0 °F 100% 30.04 in 1.2 mi NNE 4.6 mph - N/A   Overcast
12:55 PM 50.0 °F - 50.0 °F 100% 30.03 in 1.5 mi NNE 6.9 mph - N/A   Overcast
1:15 PM 50.0 °F - 50.0 °F 100% 30.03 in 1.8 mi NE 4.6 mph - N/A   Overcast
1:35 PM 50.0 °F - 50.0 °F 100% 30.03 in 2.5 mi NNE 5.8 mph - N/A   Overcast
1:55 PM 50.0 °F - 50.0 °F 100% 30.04 in 3.0 mi North 9.2 mph - N/A   Overcast
2:15 PM 50.0 °F - 48.2 °F 94% 30.04 in 2.5 mi NNE 9.2 mph - N/A   Overcast
2:35 PM 48.2 °F - 46.4 °F 93% 30.04 in 2.5 mi NNE 8.1 mph - N/A   Overcast
2:55 PM 48.2 °F - 46.4 °F 93% 30.06 in 4.0 mi NNE 8.1 mph - N/A   Overcast
3:15 PM 46.4 °F 40.7 °F 46.4 °F 100% 30.06 in 7.0 mi NE 12.7 mph 17.3 mph N/A   Overcast
3:35 PM 46.4 °F 41.1 °F 44.6 °F 93% 30.08 in 7.0 mi NNE 11.5 mph 16.1 mph N/A   Overcast
3:55 PM 46.4 °F 41.5 °F 44.6 °F 93% 30.09 in 7.0 mi North 10.4 mph 16.1 mph N/A   Overcast
4:15 PM 46.4 °F 44.3 °F 42.8 °F 87% 30.09 in 7.0 mi NE 4.6 mph - N/A   Overcast
4:35 PM 46.4 °F 43.5 °F 44.6 °F 93% 30.09 in 10.0 mi NE 5.8 mph - N/A   Overcast
4:55 PM 46.4 °F 42.4 °F 42.8 °F 87% 30.10 in 10.0 mi NE 8.1 mph - N/A   Overcast
5:15 PM 46.4 °F 42.9 °F 42.8 °F 87% 30.11 in 10.0 mi NNE 6.9 mph - N/A   Overcast
5:35 PM 46.4 °F 41.9 °F 42.8 °F 87% 30.12 in 10.0 mi NNE 9.2 mph - N/A   Overcast
5:55 PM 44.6 °F 41.4 °F 42.8 °F 93% 30.12 in 10.0 mi NE 5.8 mph - N/A   Overcast
6:15 PM 44.6 °F 38.8 °F 42.8 °F 93% 30.14 in 10.0 mi NNE 11.5 mph - N/A   Overcast
6:35 PM 44.6 °F 39.7 °F 41.0 °F 87% 30.15 in 10.0 mi NNE 9.2 mph - N/A   Overcast
6:55 PM 44.6 °F 41.4 °F 41.0 °F 87% 30.16 in 10.0 mi NNE 5.8 mph - N/A   Overcast
7:15 PM 44.6 °F 41.4 °F 41.0 °F 87% 30.17 in 10.0 mi NNE 5.8 mph - N/A   Overcast
7:35 PM 44.6 °F 40.7 °F 41.0 °F 87% 30.17 in 10.0 mi NE 6.9 mph - N/A   Overcast
7:55 PM 44.6 °F 40.2 °F 41.0 °F 87% 30.18 in 10.0 mi NE 8.1 mph - N/A   Overcast
8:15 PM 44.6 °F 40.2 °F 41.0 °F 87% 30.21 in 10.0 mi NNE 8.1 mph - N/A   Overcast
8:35 PM 42.8 °F 37.0 °F 39.2 °F 87% 30.21 in 10.0 mi NE 10.4 mph - N/A   Overcast
8:55 PM 42.8 °F 37.5 °F 37.4 °F 81% 30.21 in 10.0 mi NE 9.2 mph - N/A   Overcast
9:15 PM 42.8 °F 38.0 °F 37.4 °F 81% 30.22 in 10.0 mi NE 8.1 mph - N/A   Overcast
9:35 PM 42.8 °F 39.3 °F 37.4 °F 81% 30.23 in 10.0 mi NE 5.8 mph - N/A   Overcast
9:55 PM 42.8 °F 39.3 °F 37.4 °F 81% 30.23 in 10.0 mi NE 5.8 mph - N/A   Overcast
10:15 PM 42.8 °F 39.3 °F 37.4 °F 81% 30.23 in 10.0 mi NE 5.8 mph - N/A   Overcast
10:35 PM 42.8 °F 39.3 °F 37.4 °F 81% 30.22 in 10.0 mi NE 5.8 mph - N/A   Overcast
10:55 PM 42.8 °F 38.6 °F 37.4 °F 81% 30.23 in 10.0 mi NE 6.9 mph - N/A   Overcast
11:15 PM 42.8 °F 39.3 °F 35.6 °F 76% 30.23 in 10.0 mi NE 5.8 mph - N/A   Overcast
11:35 PM 41.0 °F 36.4 °F 35.6 °F 81% 30.23 in 10.0 mi NE 6.9 mph - N/A   Overcast
11:55 PM 41.0 °F 36.4 °F 35.6 °F 81% 30.22 in 10.0 mi NE 6.9 mph - N/A   Overcast